Hutchinson, KS

4:39 PM CDT on May 25, 2017 (GMT -0500)
Hutchinson Municipal

Weather History for KHUT - October, 2012

Change the Weather History Date:

Friday, October 12, 2012

  Actual Average Record
Temperature  
Mean Temperature 54 °F -  
Max Temperature 64 °F 69 °F 88 °F (1999)
Min Temperature 48 °F 43 °F 34 °F (2006)
Degree Days  
Heating Degree Days 10    
Growing Degree Days 4 (Base 50)    
Moisture  
Dew Point 49 °F    
Average Humidity 82    
Maximum Humidity 100    
Minimum Humidity 42    
Precipitation  
Precipitation 0.01 in - - ()
Sea Level Pressure  
Sea Level Pressure 30.12 in    
Wind  
Wind Speed 9 mph (ENE)    
Max Wind Speed 18 mph    
Max Gust Speed 30 mph    
Visibility 5 miles    
Events Fog , Rain , Thunderstorm    
Averages and records for this station are not official NWS values.
T = Trace of Precipitation, MM = Missing Value Source: NWS Daily Summary

Daily Weather History Graph

Daily Weather History Graph

Search for Another Location

Airport or City:

Trip Planner

Search our weather history database for the weather conditions in past years. The results will help you decide how hot, cold, wet, or windy it might be!

Date:

Astronomy

Oct. 12, 2012 Rise Set
Actual Time 7:37 AM CDT 6:57 PM CDT
Civil Twilight 7:11 AM CDT 7:23 PM CDT
Nautical Twilight 6:40 AM CDT 7:54 PM CDT
Astronomical Twilight 6:10 AM CDT 8:24 PM CDT
Moon 4:24 AM CDT (10/12) 5:05 PM CDT (10/12)
Length of Visible Light 12h 12m
Length of Day
11h 19m
Waning Crescent, 10% of the Moon is Illuminated
Oct 12
Waning Crescent
Oct 15
New
Oct 21
First Quarter
Oct 29
Full
Nov 6
Last Quarter

Hourly Weather History & Observations

Time (CDT) Temp. Dew Point Humidity Pressure Visibility Wind Dir Wind Speed Gust Speed Precip Events Conditions
12:52 AM 61.0 °F 39.9 °F 46% 30.09 in 10.0 mi NE 16.1 mph 23.0 mph N/A   Clear
1:27 AM 59.0 °F 35.6 °F 42% 30.14 in 10.0 mi NE 16.1 mph 25.3 mph N/A   Mostly Cloudy
1:52 AM 57.9 °F 36.0 °F 44% 30.09 in 10.0 mi NE 18.4 mph 29.9 mph N/A   Overcast
2:52 AM 55.9 °F 35.1 °F 45% 30.11 in 10.0 mi NE 11.5 mph 24.2 mph N/A   Overcast
3:52 AM 55.0 °F 36.0 °F 49% 30.10 in 10.0 mi NE 11.5 mph 19.6 mph N/A   Overcast
5:52 AM 53.1 °F 37.0 °F 55% 30.15 in 10.0 mi NE 11.5 mph 18.4 mph N/A   Overcast
6:52 AM 53.1 °F 37.9 °F 57% 30.15 in 10.0 mi NE 11.5 mph - N/A   Overcast
7:52 AM 50.0 °F 39.9 °F 68% 30.18 in 10.0 mi Variable 5.8 mph 16.1 mph N/A   Overcast
8:52 AM 48.9 °F 44.1 °F 83% 30.19 in 4.0 mi NE 10.4 mph 19.6 mph 0.00 in Rain Light Rain
9:04 AM 48.2 °F 44.6 °F 87% 30.24 in 6.0 mi ENE 11.5 mph 17.3 mph 0.00 in Rain Light Rain
9:39 AM 50.0 °F 44.6 °F 82% 30.24 in 10.0 mi ENE 11.5 mph 20.7 mph 0.00 in   Overcast
9:52 AM 50.0 °F 45.0 °F 83% 30.21 in 10.0 mi East 10.4 mph 17.3 mph 0.00 in   Overcast
10:07 AM 51.8 °F 44.6 °F 76% 30.24 in 10.0 mi ENE 9.2 mph - N/A   Overcast
10:52 AM 54.0 °F 43.0 °F 66% 30.21 in 10.0 mi East 11.5 mph - N/A   Overcast
12:52 PM 55.9 °F 46.9 °F 72% 30.17 in 10.0 mi East 6.9 mph - N/A   Overcast
1:49 PM 55.4 °F 51.8 °F 88% 30.19 in 1.8 mi Calm Calm - 0.07 in Rain , Thunderstorm Heavy Thunderstorms and Rain
2:41 PM 53.6 °F 51.8 °F 94% 30.17 in 3.0 mi Calm Calm - 0.01 in Rain Light Rain
2:52 PM 55.0 °F 51.1 °F 86% 30.12 in 5.0 mi NE 3.5 mph - 0.01 in Rain Light Rain
3:15 PM 55.4 °F 53.6 °F 94% 30.14 in 5.0 mi ENE 4.6 mph - 0.00 in   Overcast
3:28 PM 55.4 °F 53.6 °F 94% 30.15 in 6.0 mi Calm Calm - 0.00 in   Overcast
3:52 PM 55.9 °F 53.1 °F 90% 30.12 in 5.0 mi NE 4.6 mph - 0.00 in   Overcast
4:52 PM 55.9 °F 54.0 °F 93% 30.11 in 2.5 mi Calm Calm - N/A   Overcast
5:14 PM 55.4 °F 53.6 °F 94% 30.10 in 2.0 mi NE 4.6 mph - N/A   Overcast
5:22 PM 55.4 °F 53.6 °F 94% 30.13 in 1.5 mi Calm Calm - N/A   Overcast
5:52 PM 55.9 °F 54.0 °F 93% 30.07 in 1.0 mi ESE 9.2 mph - 0.00 in Rain Light Rain
6:52 PM 57.0 °F 55.0 °F 93% 30.04 in 7.0 mi East 5.8 mph - 0.00 in   Overcast
7:52 PM 57.0 °F 55.0 °F 93% 30.05 in 3.0 mi East 3.5 mph - N/A   Overcast
8:02 PM 57.2 °F 55.4 °F 94% 30.07 in 2.5 mi Calm Calm - N/A   Overcast
8:11 PM 57.2 °F 55.4 °F 94% 30.08 in 3.0 mi Calm Calm - N/A   Overcast
8:26 PM 57.2 °F 55.4 °F 94% 30.07 in 2.0 mi Calm Calm - N/A   Overcast
8:34 PM 57.2 °F 55.4 °F 94% 30.07 in 1.2 mi ESE 4.6 mph - N/A   Overcast
8:44 PM 57.2 °F 55.4 °F 94% 30.07 in 0.5 mi East 3.5 mph - N/A Fog Fog
8:52 PM 57.0 °F 55.9 °F 96% 30.04 in 0.5 mi East 3.5 mph - N/A Fog Fog
10:25 PM 57.2 °F 55.4 °F 94% 30.05 in 0.2 mi Calm Calm - N/A Fog Fog
10:36 PM 57.2 °F 55.4 °F 94% 30.04 in 0.2 mi Calm Calm - N/A Fog Fog
10:52 PM 57.0 °F 55.9 °F 96% 30.01 in 0.2 mi Calm Calm - N/A Fog Fog
11:12 PM 57.2 °F 55.4 °F 94% 30.03 in 0.2 mi SSE 4.6 mph - N/A Fog Fog
11:32 PM 57.2 °F 57.2 °F 100% 30.01 in 0.5 mi SE 5.8 mph - N/A Fog Fog